This demonstration page uses our WeatherBlox Daily Observations layout. Learn more.

Left ArrowRight Arrow

36.17497, -115.13722

Hourly Observations for September 7, 2015

Temp ( °F °C ) Dew Point ( °F °C ) Humidity (%) Winds ( mph kmh ) Pressure ( in mb ) Visibility ( mi km ) Precip ( " mm )
12:53 am 00:53 Clear 84 28.9 47 8.3 27 27 SW 8 13 29.87 1012 10 16 N/A
1:53 am 01:53 Clear 81 27.2 47 8.3 30 30 N 6 9 29.88 1012 10 16 N/A
2:53 am 02:53 Clear 81 27.2 45 7.2 28 28 NW 7 11 29.88 1012 10 16 N/A
3:53 am 03:53 Mostly Cloudy 81 27.2 45 7.2 28 28 N 3 6 29.88 1012 10 16 N/A
4:53 am 04:53 Clear 77 25 44 6.7 31 31 N N/A 29.88 1012 10 16 N/A
5:53 am 05:53 Clear 78 25.6 45 7.2 31 31 N 5 7 29.90 1013 10 16 N/A
6:53 am 06:53 Sunny 78 25.6 45 7.2 31 31 NNW 8 13 29.92 1013 10 16 N/A
7:53 am 07:53 Sunny 82 27.8 47 8.3 29 29 N 5 7 29.94 1014 10 16 N/A
8:53 am 08:53 Sunny 85 29.4 49 9.4 29 29 N N/A 29.96 1014 10 16 N/A
9:53 am 09:53 Sunny 87 30.6 47 8.3 25 25 ESE 6 9 29.96 1014 10 16 N/A
10:53 am 10:53 Sunny 91 32.8 48 8.9 23 23 E 6 9 29.94 1014 10 16 N/A
11:53 am 11:53 Sunny 93 33.9 49 9.4 22 22 SSE 10 17 29.91 1013 10 16 N/A
12:53 pm 12:53 Sunny 95 35 49 9.4 21 21 SSW 5 7 29.88 1012 10 16 N/A
1:53 pm 13:53 Sunny 96 35.6 49 9.4 20 20 ESE 7 11 29.86 1011 10 16 N/A
2:53 pm 14:53 Mostly Sunny 98 36.7 44 6.7 16 16 WSW 12 19 29.82 1010 10 16 N/A
3:53 pm 15:53 Sunny 98 36.7 45 7.2 16 16 S 13 20 29.80 1009 10 16 N/A
4:53 pm 16:53 Sunny 99 37.2 45 7.2 16 16 WNW 10 17 29.79 1009 10 16 N/A
5:53 pm 17:53 Sunny 99 37.2 41 5 14 14 WSW 12 19 29.79 1009 10 16 N/A
6:53 pm 18:53 Sunny 96 35.6 41 5 15 15 SW 14 22 29.80 1009 10 16 N/A
7:53 pm 19:53 Clear 94 34.4 42 5.6 17 17 W 9 15 29.81 1009 10 16 N/A
8:53 pm 20:53 Clear 93 33.9 44 6.7 18 18 WSW 8 13 29.83 1010 10 16 N/A
9:53 pm 21:53 Clear 90 32.2 45 7.2 21 21 W 8 13 29.84 1011 10 16 N/A
10:53 pm 22:53 Clear 88 31.1 44 6.7 22 22 WNW 6 9 29.85 1011 10 16 N/A
11:53 pm 23:53 Clear 85 29.4 43 6.1 23 23 VRB 5 7 29.87 1011 10 16 N/A

Powered by AerisWeather